Location: Park Creek Village Mobile Home Park
(38.2885°N, 122.4714°W)
Time: 23:20:51
(UTC+00:00)

H-2A R/B - Pass Details

Date: 14 December 2019
Orbit: 501 x 541 km, 97.3° (Epoch: 19 January)

Event Time Altitude Azimuth Distance (km) Brightness Sun altitude
Rises 14:26:55 0° 11° (N) 2,630 6.2 -10.0°
Reaches altitude 10° 14:29:00 10° 11° (N) 1,746 5.3 -9.6°
Maximum altitude 14:32:46 86° 285° (WNW) 526 2.7 -8.9°
Drops below altitude 10° 14:36:34 10° 194° (SSW) 1,755 5.5 -8.3°
Sets 14:38:40 0° 194° (SSW) 2,646 6.4 -7.9°
